Regional Weather Roundup
Issued by NWS Upton, NY

Current Version | Previous Version | Text Only | Print | Product List | Glossary On
Versions: 1 2 3 4 5 6 7 8 9 10 11 12 13 14 15 16 17 18 19 20 21 22 23 24 25 26 27 28 29 30 31 32 33 34 35 36 37 38 39 40 41 42 43 44 45 46 47 48 49 50
000
ASUS41 KOKX 290004
RWROKX

REGIONAL WEATHER ROUNDUP
NATIONAL WEATHER SERVICE NEW YORK NY
800 PM EDT FRI AUG 28 2015

NOTE: "FAIR" INDICATES FEW OR NO CLOUDS BELOW 12,000 FEET WITH NO
SIGNIFICANT WEATHER AND/OR OBSTRUCTIONS TO VISIBILITY.

NYZ071-072-176-178-NJZ106-104-290100-
NEW YORK CITY METRO AREA


CITY           SKY/WX    TMP DP  RH WIND       PRES   REMARKS
CENTRAL PARK   PTCLDY    77  50  38 VRB5      30.18R
LAGUARDIA APRT PTCLDY    80  52  37 N8        30.14R
KENNEDY INTL   PTCLDY    74  60  61 S13       30.16R
NEWARK/LIBERTY PTCLDY    77  52  41 W8        30.15R
BRNX BOT. GARD   N/A     73  52  46 CALM      30.16R
TETERBORO      CLEAR     75  51  43 NW5       30.14R
$$

NYZ177-179-078>081-290100-
LONG ISLAND NEW YORK

CITY           SKY/WX    TMP DP  RH WIND       PRES   REMARKS
FARMINGDALE    CLEAR     73  58  59 SW6       30.16R
ISLIP          PTCLDY    72  56  57 CALM      30.14R
SHIRLEY        CLEAR     69  58  67 CALM      30.16R
WESTHAMPTON    CLEAR     69  56  62 W3        30.17R
MONTAUK POINT    N/A     71  62  73 CALM      30.17R
$$

NYZ052-065-067-290100-
HUDSON VALLEY

CITY           SKY/WX    TMP DP  RH WIND       PRES   REMARKS
WHITE PLAINS   PTCLDY    68  55  63 CALM      30.16R
NEWBURGH       PTCLDY    72  57  60 VRB5      30.17R
MONTGOMERY     PTCLDY    69  56  62 W6        30.16R
POUGHKEEPSIE   CLOUDY    69  57  65 CALM      30.14S
ALBANY         PTCLDY    69  53  56 W7        30.16R
$$

NJZ001-105-106-008-010-013-015-019>022-104-290100-
NEW JERSEY

CITY           SKY/WX    TMP DP  RH WIND       PRES   REMARKS
NEWARK/LIBERTY PTCLDY    77  52  41 W8        30.15R
TETERBORO      CLEAR     75  51  43 NW5       30.14R
CALDWELL       CLEAR     73  53  49 CALM      30.16R
MORRISTOWN     PTCLDY    66  57  72 CALM      30.16R
SOMERVILLE     CLEAR     68  56  65 CALM      30.13S
SUSSEX         CLEAR     64  55  72 CALM      30.17R
ANDOVER          N/A     64  57  78 CALM      30.18R
TRENTON        CLEAR     74  55  51 CALM      30.15R
MILLVILLE      CLEAR     68  59  73 W3        30.15R
ATLANTIC CITY  CLEAR     73  59  61 SE6       30.15R
WRIGHTSTOWN    NOT AVBL
TOMS RIVER     CLEAR     70  61  73 CALM      30.17R
BELMAR         CLEAR     72  55  56 S3        30.16R
$$

PAZ047>061-062-071-290100-
EASTERN PENNSYLVANIA

CITY           SKY/WX    TMP DP  RH WIND       PRES   REMARKS
PHILADELPHIA   PTCLDY    80  52  37 NW7       30.15R
ALLENTOWN      CLEAR     72  55  55 CALM      30.15S
SCRANTON       CLOUDY    69  56  62 CALM      30.18R
$$

CTZ002-004>006-009-010-012-RIZ004-006-007-MAZ004-011-015-290100-
SOUTHERN NEW ENGLAND
 IN CT

CITY           SKY/WX    TMP DP  RH WIND       PRES   REMARKS
BRADLEY INTL   PTCLDY    71  56  58 W7        30.14R
HARTFORD       MOCLDY    76  54  46 W5        30.14R
DANBURY        CLEAR     66  56  70 SW3       30.17R
WTRBRY/OXFORD  CLEAR     70  54  56 N5        30.18R
BRIDGEPORT     CLEAR     74  58  57 CALM      30.15R
MERIDEN        MOCLDY    71  56  58 CALM      30.15R
NEW HAVEN      PTCLDY    73  57  57 SW3       30.15R
CHESTER        NOT AVBL
GROTON         CLEAR     71  57  61 W5        30.14R
WILLIMANTIC    CLEAR     70  57  63 CALM      30.14R

 IN RI

CITY           SKY/WX    TMP DP  RH WIND       PRES   REMARKS
PROVIDENCE     PTCLDY    71  59  65 SW9       30.14R
BLOCK ISLAND   CLEAR     70  63  78 SW8       30.15R
WESTERLY       CLEAR     70  63  78 SW3       30.16R

 IN MA

CITY           SKY/WX    TMP DP  RH WIND       PRES   REMARKS
BOSTON         PTCLDY    70  61  73 SE8       30.13R
WORCESTER      CLEAR     66  53  63 W7        30.17R
WESTFIELD      PTCLDY    70  57  63 W5        30.14R
PROVINCETOWN   CLEAR     66  57  72 S5        30.14R
NANTUCKET      CLEAR     66  58  75 SW3       30.15R
$$

ANZ330-335-338-340-345-350-353-355-290100-
COASTAL MARINE OBSERVATIONS


STATION/POSITION TIME  SKY/WX   TEMP    WIND        PRES    VSBY  WAVE
                                AIR SEA DIR/SP/G                  HT/PER
                 (UTC)          (F)     (DEG/KT/KT) (MB)    (MI)  (FT/S)
NY HARB ENTRANCE 2250            74 77  200/ 10/ 12 1020.3          2/11
4S FIRE IS       NOT AVBL
20S FIRE ISLAND  2250            75 76   CALM  /  2 1020.5          3/10
GREAT SOUTH BAY  2330            74 79  220/  6/ 10   N/A
23SW MTP         2350            72 75  240/  4/  6 1020.6          3/11
HUDSON CANYON    NOT AVBL
KINGS POINT      NOT AVBL
EXECUTION ROCKS  2300            81     100/  4/  4   N/A
CENTRAL LI SOUND NOT AVBL
EASTERN LI SOUND 2300            76 71  250/  6/  6   N/A
ROBBINS REEF     NOT AVBL
$$


>>>>>>>>>>>>>>>>>>>>>>>>>>>> KEY <<<<<<<<<<<<<<<<<<<<<<<<<<<
>                                                          <
>     SKY/WX - SKY CONDITION/PRESENT WEATHER               <
>     TMP    - TEMPERATURE IN FAHRENHEIT                   <
>     DP     - DEWPOINT IN FAHRENHEIT                      <
>     RH     - RELATIVE HUMIDITY IN PERCENT                <
>     WIND   - DIRECTION AND SPEED IN MPH                  <
>     PRES   - MEAN SEA LEVEL PRESSURE IN INCHES OF HG     <
>     WCI    - WIND CHILL INDEX                            <
>     VSB    - VISIBILITY IN MILES                         <
>     HX     - HEAT INDEX                                  <
>     TC     - TEMPERATURE IN CELSIUS                      <
>     VRB    - VARIABLE WIND DIRECTION                     <
>                                                          <
>>>>>>>>>>>>>>>>>>>>>>>>>>>> KEY <<<<<<<<<<<<<<<<<<<<<<<<<<<




USA.gov is the U.S. government's official web portal to all federal, state and local government web resources and services.